Liberia, Costa Rica

12:02 PM CST on September 22, 2017 (GMT -0600)
Daniel Oduber Quiros International

Weather History for MRLB - November, 2013

Change the Weather History Date:

Monday, November 25, 2013

  Actual Average Record
Temperature  
Mean Temperature 81 °F -  
Max Temperature 92 °F 87 °F 93 °F (2001)
Min Temperature 70 °F 72 °F 66 °F (2005)
Cooling Degree Days 16    
Growing Degree Days 31 (Base 50)    
Moisture  
Dew Point 71 °F    
Average Humidity 66    
Maximum Humidity 94    
Minimum Humidity 44    
Precipitation  
Precipitation 0.00 in - - ()
Sea Level Pressure  
Sea Level Pressure 29.84 in    
Wind  
Wind Speed 4 mph ()    
Max Wind Speed 12 mph    
Max Gust Speed -    
Visibility 7.8 miles    
Events      
Averages and records for this station are not official NWS values.
T = Trace of Precipitation, MM = Missing Value Source: Averaged Metar Reports

Daily Weather History Graph

Daily Weather History Graph

Search for Another Location

Airport or City:

Trip Planner

Search our weather history database for the weather conditions in past years. The results will help you decide how hot, cold, wet, or windy it might be!

Date:

Astronomy

Nov. 25, 2013 Rise Set
Actual Time 5:41 AM CST 5:16 PM CST
Civil Twilight 5:19 AM CST 5:39 PM CST
Nautical Twilight 4:53 AM CST 6:05 PM CST
Astronomical Twilight 4:27 AM CST 6:30 PM CST
Moon 11:54 PM CST (11/25) 11:39 AM CST (11/25)
Length of Visible Light 12h 19m
Length of Day
11h 34m
Waning Gibbous, 51% of the Moon is Illuminated
Nov 25
Waning Gibbous
Nov 25
Last Quarter
Dec 2
New
Dec 9
First Quarter
Dec 17
Full

Hourly Weather History & Observations

Time (CST) Temp. Heat Index Dew Point Humidity Pressure Visibility Wind Dir Wind Speed Gust Speed Precip Events Conditions
6:00 AM 72 °F - 69 °F 88% 29.88 in 12 mi South 5.8 mph - -   Scattered Clouds
6:00 AM 71.6 °F - 69.8 °F 94% 29.84 in 6.2 mi South 5.8 mph - N/A   Partly Cloudy
7:00 AM 75.2 °F - 71.6 °F 89% 29.87 in - South 5.8 mph - N/A   Clear
8:00 AM 78.8 °F - 71.6 °F 78% 29.89 in 6.2 mi NNW 4.6 mph - N/A   Partly Cloudy
9:00 AM 82 °F - 71 °F 60% 29.92 in 12 mi SSW 2.3 mph - -   Scattered Clouds
9:00 AM 82.4 °F 86.3 °F 69.8 °F 66% 29.89 in 6.2 mi SSW 2.3 mph - N/A   Partly Cloudy
10:00 AM 84.2 °F 88.4 °F 69.8 °F 62% 29.88 in 6.2 mi South 4.6 mph - N/A   Partly Cloudy
11:00 AM 87.8 °F 92.6 °F 69.8 °F 55% 29.86 in 6.2 mi East 11.5 mph - N/A   Partly Cloudy
12:00 PM 87 °F - 72 °F 51% 29.86 in 12 mi NNW 3.5 mph - -   Partly Cloudy
12:00 PM 87.8 °F 93.8 °F 71.6 °F 58% 29.83 in 6.2 mi NNW 3.5 mph - N/A   Scattered Clouds
1:00 PM 86.0 °F 89.4 °F 68.0 °F 55% 29.81 in 6.2 mi ESE 8.1 mph - N/A   Scattered Clouds
2:00 PM 89.6 °F 94.7 °F 69.8 °F 52% 29.78 in 6.2 mi ESE 5.8 mph - N/A   Scattered Clouds
3:00 PM 89 °F - 70 °F 44% 29.79 in 12 mi SE 3.5 mph - -   Partly Cloudy
3:00 PM 89.6 °F 94.7 °F 69.8 °F 52% 29.76 in 6.2 mi SE 3.5 mph - N/A   Scattered Clouds
4:00 PM 87.8 °F 93.8 °F 71.6 °F 58% 29.77 in 6.2 mi West 5.8 mph - N/A   Scattered Clouds
5:00 PM 86.0 °F 93.4 °F 73.4 °F 66% 29.79 in 6.2 mi WNW 4.6 mph - N/A   Scattered Clouds
6:00 PM 83 °F - 73 °F 64% 29.84 in 12 mi SSE 2.3 mph - -   Partly Cloudy
6:00 PM 82.4 °F 88.2 °F 73.4 °F 74% 29.81 in - SSE 2.3 mph - N/A   Scattered Clouds
7:00 PM 80.6 °F 84.6 °F 71.6 °F 74% 29.83 in 6.2 mi SSW 2.3 mph - N/A   Scattered Clouds
8:00 PM 78.8 °F - 71.6 °F 78% 29.86 in 6.2 mi WSW 3.5 mph - N/A   Scattered Clouds